Location: Oregon Star Party
(44.2935°N, 120.1332°W)
Time: 13:52:43
(UTC-08:00)

Amateur Radio Satellites - All Passes

Search period start: 17 December 2014 13:22
Search period end: 18 December 2014 13:22
Location: Oregon Star Party, 44.2935°N, 120.1332°W

Satellite Date Start Highest point End Downlink Frequencies (MHz)
Time Altitude Azimuth
BEESAT 17 Dec 13:24:55 13:29:38 58° 101° (E) 13:34:19 436.000
M-CUBED/EXP-1 PRIME 17 Dec 13:27:37 13:31:19 25° 98° (E) 13:34:45 437.505
Gurwin Techsat 1B 17 Dec 13:29:30 13:34:43 62° 72° (ENE) 13:39:58 435.225
BEESAT 2 17 Dec 13:41:21 13:44:59 31° 116° (ESE) 13:48:41 435.950
PCSat 17 Dec 13:42:57 13:47:32 29° 109° (ESE) 13:52:09 145.827
SPROUT 17 Dec 13:43:38 13:46:15 16° 297° (WNW) 13:48:51 437.525
RS-15 17 Dec 13:47:06 13:57:50 59° 314° (NW) 14:08:44 29.354- 29.394
Oscar 19 17 Dec 13:48:41 13:52:43 23° 267° (W) 13:56:47 437.125/150
KKS-1 17 Dec 13:49:09 13:52:37 22° 94° (E) 13:56:05 437.445
TISAT 1 17 Dec 13:52:39 13:54:19 12° 300° (WNW) 13:56:00 437.305
STARS 17 Dec 13:53:36 13:56:25 17° 92° (E) 13:59:14 437.465
ITAMSAT 1 17 Dec 13:55:17 14:00:18 49° 260° (W) 14:05:20 435.822/435.867
AO-7 17 Dec 14:00:49 14:08:15 38° 58° (ENE) 14:15:44 29.400- 29.500
HORYU 2 17 Dec 14:17:27 14:21:53 71° 74° (ENE) 14:26:22 437.375
AIST 2 17 Dec 14:29:10 14:33:13 46° 119° (ESE) 14:37:20 435.215
ITUPSAT 1 17 Dec 14:36:20 14:40:31 31° 293° (WNW) 14:44:41 437.325
SWISSCUBE 17 Dec 14:37:26 14:41:28 28° 294° (WNW) 14:45:29 437.505
AUBIESAT-1 17 Dec 14:38:58 14:43:28 65° 292° (WNW) 14:47:33 437.475
BEESAT 3 17 Dec 14:42:16 14:46:19 58° 308° (NW) 14:50:27 437.485
ISS 17 Dec 14:55:26 14:58:38 50° 143° (SE) 15:01:51 145.825
M-CUBED/EXP-1 PRIME 17 Dec 15:02:15 15:06:25 35° 298° (WNW) 15:10:16 437.505
BEESAT 17 Dec 15:03:49 15:07:02 18° 299° (WNW) 15:10:14 436.000
Gurwin Techsat 1B 17 Dec 15:11:30 15:15:06 18° 269° (W) 15:18:44 435.225
BEESAT 2 17 Dec 15:19:30 15:23:13 31° 314° (NW) 15:26:59 435.950
JAS-2 17 Dec 15:24:08 15:31:17 44° 67° (ENE) 15:37:53 435.910
KKS-1 17 Dec 15:25:14 15:29:24 39° 291° (WNW) 15:33:32 437.445
PCSat 17 Dec 15:25:33 15:30:44 46° 308° (NW) 15:35:58 145.827
STARS 17 Dec 15:28:53 15:33:12 51° 288° (WNW) 15:37:29 437.465
AO-7 17 Dec 15:52:39 16:00:45 56° 258° (WSW) 16:08:57 29.400- 29.500
HORYU 2 17 Dec 15:57:18 15:59:03 12° 271° (W) 16:00:49 437.375
AIST 1 17 Dec 16:01:54 16:05:28 25° 89° (E) 16:09:03
RS-15 17 Dec 16:04:08 16:13:08 28° 345° (NNW) 16:22:20 29.354- 29.394
AIST 2 17 Dec 16:08:32 16:12:03 24° 318° (NW) 16:15:36 435.215
MOZHAYETS 4 17 Dec 16:10:15 16:13:58 23° 93° (E) 16:17:37
GONETS M04 17 Dec 16:14:05 16:22:31 47° 73° (ENE) 16:30:49
BEESAT 3 17 Dec 16:24:02 16:25:24 11° 328° (NNW) 16:26:48 437.485
Cubesat XI-IV 17 Dec 16:24:41 16:29:07 28° 64° (ENE) 16:33:33 437.490
ISS 17 Dec 16:32:18 16:35:20 33° 341° (NNW) 16:38:22 145.825
CUTE-I 17 Dec 16:58:04 17:03:12 51° 70° (ENE) 17:08:20 437.470
JAS-2 17 Dec 17:09:02 17:16:16 42° 263° (W) 17:23:02 435.910
PCSat 17 Dec 17:13:39 17:15:35 12° 331° (NNW) 17:17:32 145.827
CUBESAT XI-V 17 Dec 17:26:23 17:26:55 10° 87° (E) 17:27:28 437.345
AIST 1 17 Dec 17:39:08 17:43:01 30° 286° (WNW) 17:46:54
MOZHAYETS 4 17 Dec 17:47:00 17:51:18 39° 290° (WNW) 17:55:34
STRAND 1 17 Dec 17:51:54 17:55:20 18° 91° (E) 17:58:45 437.568
Cubesat XI-IV 17 Dec 18:03:55 18:08:59 43° 261° (W) 18:14:04 437.490
PRISM 17 Dec 18:07:50 18:11:57 57° 101° (E) 18:16:01 437.425
ISS 17 Dec 18:09:56 18:12:35 22° 2° (N) 18:15:13 145.825
GONETS M04 17 Dec 18:11:13 18:19:12 41° 274° (W) 18:27:06
RS-15 17 Dec 18:20:41 18:30:08 30° 21° (NNE) 18:39:51 29.354- 29.394
MaSat-1 17 Dec 18:28:36 18:30:54 43° 61° (ENE) 18:33:18 437.345
CUTE-I 17 Dec 18:39:26 18:43:32 22° 267° (W) 18:47:40 437.470
GOMX 1 17 Dec 18:56:24 18:58:01 12° 61° (ENE) 18:59:39 467.674
CUBESAT XI-V 17 Dec 19:00:22 19:05:00 85° 284° (WNW) 19:09:35 437.345
HO-68 17 Dec 19:02:53 19:09:29 41° 63° (ENE) 19:16:04 435.675
STRAND 1 17 Dec 19:29:54 19:34:55 59° 289° (WNW) 19:39:54 437.568
CUSAT 1 17 Dec 19:32:25 19:38:49 32° 69° (ENE) 19:46:04 437.405
AAUSAT CUBESAT 2 17 Dec 19:32:27 19:35:52 25° 67° (ENE) 19:39:18 437.432
CANX-2 17 Dec 19:33:42 19:37:42 41° 71° (ENE) 19:41:45 2200.000
DOVE 4 17 Dec 19:35:00 19:38:13 22° 66° (ENE) 19:41:28 437.250
PRISM 17 Dec 19:44:42 19:47:02 15° 298° (WNW) 19:49:20 437.425
ISS 17 Dec 19:46:38 19:49:46 39° 22° (NNE) 19:52:53 145.825
BRITE-PL 17 Dec 19:48:34 19:52:43 58° 74° (ENE) 19:56:47 437.365/2234.400
DX 1 17 Dec 20:02:45 20:06:10 23° 65° (ENE) 20:09:37 434.975-435.025
COMPASS 1 17 Dec 20:04:32 20:08:41 60° 74° (ENE) 20:12:53 437.405
CUTE 1.7 + AOD 2 17 Dec 20:04:41 20:08:56 83° 76° (ENE) 20:13:15 437.475
SEEDS 17 Dec 20:05:34 20:09:48 73° 75° (ENE) 20:14:04 437.485
DANDE 17 Dec 20:08:09 20:15:03 47° 74° (ENE) 20:23:09 436.750
CINEMA 3 17 Dec 20:23:16 20:27:10 42° 71° (ENE) 20:31:11 145.822/145.860
CUBEBUG 2 17 Dec 20:28:06 20:31:45 30° 68° (ENE) 20:35:29 437.445
Oscar 11 17 Dec 20:29:59 20:34:11 51° 72° (ENE) 20:38:25 145.826/435.025
GOMX 1 17 Dec 20:31:30 20:35:38 67° 259° (WSW) 20:39:47 467.674
RS-15 17 Dec 20:33:45 20:44:58 69° 50° (NE) 20:56:40 29.354- 29.394
UKube-1 17 Dec 20:36:26 20:40:36 49° 71° (ENE) 20:44:48 .
DELFI C3 17 Dec 20:40:31 20:44:32 55° 73° (ENE) 20:48:36 145.870
CUBESAT XI-V 17 Dec 20:40:40 20:41:40 11° 302° (WNW) 20:42:40 437.345
HUMSAT D 17 Dec 20:42:23 20:45:21 19° 65° (ENE) 20:48:21 437.325/437.525
VELOX 1 17 Dec 20:43:51 20:47:12 22° 64° (ENE) 20:50:33 145.980
50 SAT 17 Dec 20:45:19 20:47:53 17° 64° (ENE) 20:50:27 437.505
HO-68 17 Dec 20:50:22 20:57:07 43° 261° (W) 21:03:55 435.675
ZACube-1 17 Dec 20:52:19 20:56:12 40° 70° (ENE) 21:00:11 437.345
AAUSAT CUBESAT 2 17 Dec 21:07:38 21:11:24 31° 264° (W) 21:15:12 437.432
CANX-2 17 Dec 21:10:49 21:13:50 19° 268° (W) 21:16:53 2200.000
DOVE 4 17 Dec 21:12:07 21:15:51 32° 264° (W) 21:19:38 437.250
UWE-3 17 Dec 21:12:23 21:16:32 79° 75° (ENE) 21:20:48 435.000/436.395/437.385
AIST 2 17 Dec 21:13:04 21:14:14 11° 30° (NNE) 21:15:23 435.215
CUSAT 1 17 Dec 21:14:59 21:22:13 63° 264° (W) 21:30:32 437.405
FUNcube-1 17 Dec 21:19:44 21:23:53 79° 76° (ENE) 21:28:09 145.935
BEESAT 3 17 Dec 21:23:05 21:26:16 20° 41° (NE) 21:29:25 437.485
ISS 17 Dec 21:23:18 21:26:20 35° 220° (SW) 21:29:21 145.825
AISAT 17 Dec 21:24:01 21:28:19 54° 72° (ENE) 21:32:39 437.250
ANTELSAT 17 Dec 21:29:10 21:31:30 14° 89° (E) 21:33:49 437.575/2403.000
BRITE-PL 17 Dec 21:29:58 21:31:39 12° 270° (W) 21:33:20 437.365/2234.400
SO-50 17 Dec 21:31:55 21:36:15 47° 119° (ESE) 21:40:45 436.795
DX 1 17 Dec 21:38:13 21:42:14 36° 262° (W) 21:46:15 434.975-435.025
CUBEBUG 1 17 Dec 21:42:05 21:45:56 31° 68° (ENE) 21:49:48 437.445
COMPASS 1 17 Dec 21:42:53 21:44:49 13° 271° (W) 21:46:46 437.405
SEEDS 17 Dec 21:45:14 21:46:08 11° 272° (W) 21:47:03 437.485
QB50P2 17 Dec 21:48:30 21:50:14 12° 90° (E) 21:51:59 145.880/145.840
DANDE 17 Dec 21:51:44 21:58:30 42° 268° (W) 22:06:20 436.750
POLYITAN 1 17 Dec 21:55:34 21:58:01 15° 91° (E) 22:00:27 437.675
BEESAT 2 17 Dec 21:59:41 22:03:34 35° 47° (NE) 22:07:25 435.950
NANOSAT C BR1 17 Dec 22:00:25 22:03:07 16° 92° (E) 22:05:49 145.865
CINEMA 3 17 Dec 22:01:55 22:04:39 17° 269° (W) 22:07:26 145.822/145.860
CUBEBUG 2 17 Dec 22:05:04 22:08:29 24° 266° (W) 22:11:58 437.445
TIGRISAT 17 Dec 22:05:19 22:09:27 30° 96° (E) 22:13:35 435.000
Oscar 11 17 Dec 22:08:03 22:10:40 16° 269° (W) 22:13:18 145.826/435.025
ESTCUBE 1 17 Dec 22:10:01 22:14:31 65° 74° (ENE) 22:19:02 437.505/2401.250
QB50P1 17 Dec 22:13:44 22:17:07 23° 94° (E) 22:20:30 145.935-145.965
UKube-1 17 Dec 22:14:15 22:17:02 17° 268° (W) 22:19:50 .
HUMSAT D 17 Dec 22:17:01 22:20:53 39° 262° (W) 22:24:50 437.325/437.525
DELFI C3 17 Dec 22:18:08 22:20:10 13° 270° (W) 22:22:12 145.870
50 SAT 17 Dec 22:18:55 22:22:46 45° 261° (W) 22:26:40 437.505
VELOX 1 17 Dec 22:19:21 22:23:32 40° 261° (W) 22:27:43 145.980
PCSat 17 Dec 22:28:31 22:33:31 36° 49° (NE) 22:38:29 145.827
ZACube-1 17 Dec 22:29:50 22:32:47 19° 268° (W) 22:35:47 437.345
UNISAT 6 17 Dec 22:32:27 22:37:05 57° 100° (E) 22:41:44 437.425
POPSAT HIP 1 17 Dec 22:41:30 22:45:35 44° 99° (E) 22:49:40 437.405
RS-15 17 Dec 22:46:44 22:56:42 38° 252° (WSW) 23:07:05 29.354- 29.394
AIST 2 17 Dec 22:49:39 22:53:52 51° 51° (NE) 22:58:01 435.215
BEESAT 17 Dec 22:59:34 23:00:43 11° 56° (ENE) 23:01:52 436.000
BEESAT 3 17 Dec 23:00:41 23:04:47 56° 240° (WSW) 23:08:50 437.485
CUSAT 1 17 Dec 23:01:13 23:04:17 13° 280° (W) 23:07:30 437.405
SPROUT 17 Dec 23:02:10 23:06:19 51° 72° (ENE) 23:10:28 437.525
AISAT 17 Dec 23:02:39 23:05:17 15° 269° (W) 23:07:55 437.250
ANTELSAT 17 Dec 23:04:04 23:08:45 70° 286° (WNW) 23:13:27 437.575/2403.000
TISAT 1 17 Dec 23:08:55 23:13:05 67° 74° (ENE) 23:17:17 437.305
DUCHIFAT 1 17 Dec 23:11:01 23:15:17 87° 284° (WNW) 23:19:32 145.980
SO-50 17 Dec 23:13:06 23:17:01 27° 319° (NW) 23:21:03 436.795
CUBEBUG 1 17 Dec 23:18:39 23:22:19 26° 265° (W) 23:26:00 437.445
QB50P2 17 Dec 23:22:21 23:26:35 64° 286° (WNW) 23:30:48 145.880/145.840
YUBILEINY 17 Dec 23:22:50 23:30:54 44° 87° (E) 23:38:57 435.215
BUGSAT 1 17 Dec 23:25:10 23:29:12 74° 285° (WNW) 23:33:15 437.445
POLYITAN 1 17 Dec 23:30:06 23:34:17 53° 288° (WNW) 23:38:27 437.675
NANOSAT C BR1 17 Dec 23:35:10 23:39:16 47° 288° (WNW) 23:43:20 145.865
BEESAT 2 17 Dec 23:38:10 23:41:42 27° 246° (WSW) 23:45:13 435.950
TIGRISAT 17 Dec 23:42:03 23:46:09 31° 292° (WNW) 23:50:17 435.000
QB50P1 17 Dec 23:49:14 23:53:05 34° 291° (WNW) 23:56:55 145.935-145.965
ESTCUBE 1 17 Dec 23:49:35 23:51:50 14° 270° (W) 23:54:05 437.505/2401.250
AUBIESAT-1 17 Dec 23:54:47 23:58:51 28° 60° (ENE) 00:02:58 437.475
ITUPSAT 1 18 Dec 00:06:47 00:11:20 44° 70° (ENE) 00:15:54 437.325
SWISSCUBE 18 Dec 00:07:31 00:12:07 48° 70° (ENE) 00:16:45 437.505
UNISAT 6 18 Dec 00:10:19 00:13:27 18° 297° (WNW) 00:16:36 437.425
PCSat 18 Dec 00:11:57 00:16:58 39° 248° (WSW) 00:21:56 145.827
M-CUBED/EXP-1 PRIME 18 Dec 00:17:26 00:22:03 47° 65° (ENE) 00:26:46 437.505
POPSAT HIP 1 18 Dec 00:18:13 00:21:11 19° 296° (WNW) 00:24:08 437.405
Oscar 19 18 Dec 00:19:37 00:22:27 15° 89° (E) 00:25:17 437.125/150
AIST 2 18 Dec 00:29:08 00:32:08 19° 249° (WSW) 00:35:05 435.215
BEESAT 18 Dec 00:32:57 00:37:45 79° 74° (ENE) 00:42:34 436.000
O/OREOS (USA 219) 18 Dec 00:37:17 00:41:12 31° 105° (ESE) 00:45:09 437.305
SPROUT 18 Dec 00:40:10 00:42:42 15° 269° (W) 00:45:15 437.525
TISAT 1 18 Dec 00:47:59 00:49:22 11° 271° (W) 00:50:45 437.305
KKS-1 18 Dec 00:49:13 00:52:49 25° 66° (ENE) 00:56:26 437.445
STARS 18 Dec 00:52:41 00:55:44 19° 63° (ENE) 00:58:48 437.465
YUBILEINY 18 Dec 01:19:24 01:27:40 45° 288° (WNW) 01:35:56 435.215
AUBIESAT-1 18 Dec 01:29:03 01:33:34 41° 257° (WSW) 01:38:13 437.475
Gurwin Techsat 1B 18 Dec 01:44:51 01:48:53 22° 92° (E) 01:52:53 435.225
ITUPSAT 1 18 Dec 01:45:40 01:49:24 22° 267° (W) 01:53:10 437.325
SWISSCUBE 18 Dec 01:46:44 01:50:14 20° 268° (W) 01:53:45 437.505
M-CUBED/EXP-1 PRIME 18 Dec 01:53:24 01:57:13 23° 262° (W) 02:01:09 437.505
Oscar 19 18 Dec 01:57:09 02:02:21 74° 286° (WNW) 02:07:32 437.125/150
ITAMSAT 1 18 Dec 02:06:20 02:11:23 52° 100° (E) 02:16:25 435.822/435.867
HORYU 2 18 Dec 02:09:27 02:11:22 12° 89° (E) 02:13:17 437.375
BEESAT 18 Dec 02:14:20 02:16:10 12° 272° (W) 02:18:00 436.000
O/OREOS (USA 219) 18 Dec 02:16:43 02:20:36 28° 303° (WNW) 02:24:29 437.305
KKS-1 18 Dec 02:25:17 02:29:19 34° 263° (W) 02:33:22 437.445
STARS 18 Dec 02:27:40 02:31:52 47° 261° (W) 02:36:07 437.465
MOZHAYETS 4 18 Dec 03:13:54 03:17:47 27° 66° (ENE) 03:21:42
Gurwin Techsat 1B 18 Dec 03:24:00 03:29:09 52° 290° (WNW) 03:34:17 435.225
Oscar 19 18 Dec 03:39:11 03:40:47 11° 305° (NW) 03:42:23 437.125/150
VERMONT LUNAR 18 Dec 03:39:30 03:41:24 14° 152° (SSE) 03:43:19 437.305
PHONESAT 2.4 18 Dec 03:41:10 03:41:42 10° 148° (SSE) 03:42:15 2401.200-2431.200
HORYU 2 18 Dec 03:44:00 03:48:32 70° 286° (WNW) 03:53:01 437.375
AIST 1 18 Dec 03:44:12 03:48:30 77° 81° (E) 03:52:46
ITAMSAT 1 18 Dec 03:46:35 03:50:32 23° 298° (WNW) 03:54:27 435.822/435.867
AO-7 18 Dec 03:52:09 04:00:12 48° 100° (E) 04:08:10 29.400- 29.500
JAS-2 18 Dec 04:18:09 04:22:52 26° 91° (E) 04:27:15 435.910
SO-50 18 Dec 04:22:14 04:25:09 16° 32° (NNE) 04:28:04 436.795
CUBESAT XI-V 18 Dec 04:30:38 04:33:04 14° 60° (ENE) 04:35:29 437.345
MOZHAYETS 4 18 Dec 04:50:40 04:54:53 34° 264° (W) 04:59:09
PRISM 18 Dec 04:59:58 05:04:05 53° 72° (ENE) 05:08:13 437.425
STRAND 1 18 Dec 05:09:02 05:13:30 32° 66° (ENE) 05:17:59 437.568
CUTE-I 18 Dec 05:14:38 05:18:07 18° 91° (E) 05:21:36 437.470
VERMONT LUNAR 18 Dec 05:15:54 05:19:10 36° 168° (SSE) 05:22:27 437.305
PHONESAT 2.4 18 Dec 05:16:29 05:19:43 30° 163° (SSE) 05:22:57 2401.200-2431.200
GONETS M04 18 Dec 05:16:49 05:25:13 51° 89° (E) 05:33:39
AO-7 18 Dec 05:45:08 05:52:53 44° 300° (WNW) 06:00:37 29.400- 29.500
SO-50 18 Dec 06:01:43 06:06:36 68° 53° (NE) 06:11:29 436.795
JAS-2 18 Dec 06:02:44 06:08:17 45° 293° (WNW) 06:13:20 435.910
CUBESAT XI-V 18 Dec 06:05:14 06:09:55 74° 258° (WSW) 06:14:36 437.345
Cubesat XI-IV 18 Dec 06:19:13 06:24:32 67° 102° (ESE) 06:29:49 437.490
PRISM 18 Dec 06:37:33 06:39:56 15° 269° (W) 06:42:20 437.425
STRAND 1 18 Dec 06:47:59 06:52:37 35° 263° (W) 06:57:17 437.568
CUTE-I 18 Dec 06:53:23 06:58:39 65° 288° (WNW) 07:03:53 437.470
VERMONT LUNAR 18 Dec 06:53:50 06:57:13 44° 185° (S) 07:00:36 437.305
PHONESAT 2.4 18 Dec 06:54:35 06:58:05 46° 180° (S) 07:01:35 2401.200-2431.200
GONETS M04 18 Dec 07:14:10 07:22:16 39° 290° (WNW) 07:30:25
AO-7 18 Dec 07:41:01 07:43:30 12° 323° (NW) 07:45:59 29.400- 29.500
SO-50 18 Dec 07:43:28 07:46:39 17° 250° (WSW) 07:49:49 436.795
CUTE 1.7 + AOD 2 18 Dec 07:50:24 07:52:29 13° 89° (E) 07:54:33 437.475
SEEDS 18 Dec 07:51:10 07:52:32 11° 88° (E) 07:53:54 437.485
BRITE-PL 18 Dec 07:51:39 07:54:44 17° 92° (E) 07:57:57 437.365/2234.400
Cubesat XI-IV 18 Dec 08:00:28 08:04:06 19° 300° (WNW) 08:07:43 437.490
HO-68 18 Dec 08:16:00 08:22:27 35° 96° (E) 08:28:50 435.675
CINEMA 3 18 Dec 08:19:11 08:19:48 10° 88° (E) 08:20:25 145.822/145.860
ANTELSAT 18 Dec 08:30:36 08:33:01 15° 61° (ENE) 08:35:28 437.575/2403.000
GOMX 1 18 Dec 08:31:00 08:35:09 31° 96° (E) 08:39:32 467.674
VERMONT LUNAR 18 Dec 08:32:17 08:35:09 23° 201° (SSW) 08:38:01 437.305
PHONESAT 2.4 18 Dec 08:33:14 08:36:26 30° 197° (SSW) 08:39:39 2401.200-2431.200
CUTE-I 18 Dec 08:37:17 08:37:41 10° 307° (NW) 08:38:06 437.470
QB50P2 18 Dec 08:43:57 08:45:48 13° 61° (ENE) 08:47:40 145.880/145.840
CUSAT 1 18 Dec 08:48:52 08:50:52 14° 80° (E) 08:53:09 437.405
AAUSAT CUBESAT 2 18 Dec 08:49:21 08:53:17 36° 97° (E) 08:57:11 437.432
POLYITAN 1 18 Dec 08:51:11 08:53:36 15° 62° (ENE) 08:56:01 437.675
CANX-2 18 Dec 08:53:16 08:57:36 68° 101° (ESE) 09:01:53 2200.000
NANOSAT C BR1 18 Dec 08:55:31 08:58:09 16° 63° (ENE) 09:00:47 145.865
UWE-3 18 Dec 09:01:58 09:04:41 15° 91° (E) 09:07:25 435.000/436.395/437.385
TIGRISAT 18 Dec 09:06:08 09:09:56 31° 68° (ENE) 09:13:51 435.000
O/OREOS (USA 219) 18 Dec 09:07:45 09:09:21 12° 46° (NE) 09:10:57 437.305
FUNcube-1 18 Dec 09:08:05 09:10:37 15° 90° (E) 09:13:09 145.935
DOVE 4 18 Dec 09:08:18 09:12:53 53° 100° (E) 09:17:45 437.250
QB50P1 18 Dec 09:08:44 09:11:59 22° 66° (ENE) 09:15:14 145.935-145.965
MaSat-1 18 Dec 09:22:29 09:24:50 76° 116° (ESE) 09:27:05 437.345
COMPASS 1 18 Dec 09:22:34 09:26:52 86° 284° (WNW) 09:31:07 437.405
CUTE 1.7 + AOD 2 18 Dec 09:24:32 09:28:48 61° 286° (WNW) 09:33:03 437.475
SEEDS 18 Dec 09:24:33 09:28:50 70° 285° (WNW) 09:33:06 437.485
DX 1 18 Dec 09:24:58 09:28:54 32° 97° (E) 09:32:48 434.975-435.025
DANDE 18 Dec 09:26:41 09:29:37 28° 88° (E) 09:33:21 436.750
BRITE-PL 18 Dec 09:29:03 09:33:30 54° 287° (WNW) 09:38:18 437.365/2234.400
YUBILEINY 18 Dec 09:31:00 09:37:39 24° 62° (ENE) 09:44:15 435.215
UNISAT 6 18 Dec 09:33:18 09:37:35 60° 73° (ENE) 09:42:00 437.425
POPSAT HIP 1 18 Dec 09:36:13 09:40:10 41° 71° (ENE) 09:44:09 437.405
Oscar 11 18 Dec 09:51:47 09:56:11 86° 104° (ESE) 10:00:33 145.826/435.025
CINEMA 3 18 Dec 09:52:52 09:57:33 90° 279° (W) 10:02:26 145.822/145.860
CUBEBUG 2 18 Dec 09:53:23 09:57:56 59° 101° (E) 10:02:35 437.445
DELFI C3 18 Dec 09:54:47 09:58:56 80° 103° (ESE) 10:03:03 145.870
50 SAT 18 Dec 09:58:10 10:01:25 22° 94° (E) 10:04:39 437.505
UKube-1 18 Dec 09:58:38 10:02:58 73° 103° (ESE) 10:07:17 .
HUMSAT D 18 Dec 10:00:01 10:03:48 29° 96° (E) 10:07:35 437.325/437.525
ESTCUBE 1 18 Dec 10:03:29 10:05:16 12° 89° (E) 10:07:03 437.505/2401.250
HO-68 18 Dec 10:03:30 10:10:20 49° 295° (WNW) 10:17:07 435.675
ANTELSAT 18 Dec 10:04:58 10:09:16 64° 259° (W) 10:13:44 437.575/2403.000
DUCHIFAT 1 18 Dec 10:05:17 10:09:29 86° 76° (ENE) 10:13:43 145.980
VELOX 1 18 Dec 10:08:36 10:12:35 32° 97° (E) 10:16:34 145.980
GOMX 1 18 Dec 10:09:10 10:13:14 31° 291° (WNW) 10:17:33 467.674
ZACube-1 18 Dec 10:15:16 10:19:46 72° 102° (ESE) 10:24:20 437.345
BUGSAT 1 18 Dec 10:16:53 10:21:00 86° 256° (WSW) 10:25:06 437.445
QB50P2 18 Dec 10:16:58 10:21:10 69° 258° (WSW) 10:25:24 145.880/145.840
POLYITAN 1 18 Dec 10:24:58 10:29:06 56° 259° (W) 10:33:16 437.675
AAUSAT CUBESAT 2 18 Dec 10:25:27 10:28:45 22° 294° (WNW) 10:32:02 437.432
NANOSAT C BR1 18 Dec 10:29:33 10:33:39 50° 260° (W) 10:37:46 145.865
CUSAT 1 18 Dec 10:29:51 10:33:12 39° 289° (WNW) 10:37:38 437.405
CANX-2 18 Dec 10:30:54 10:32:59 13° 299° (WNW) 10:35:05 2200.000
UWE-3 18 Dec 10:37:05 10:41:33 59° 287° (WNW) 10:46:07 435.000/436.395/437.385
FUNcube-1 18 Dec 10:42:53 10:47:19 60° 287° (WNW) 10:51:49 145.935
TIGRISAT 18 Dec 10:43:03 10:46:42 26° 266° (W) 10:50:27 435.000
QB50P1 18 Dec 10:43:48 10:47:41 35° 263° (W) 10:51:34 145.935-145.965
O/OREOS (USA 219) 18 Dec 10:44:59 10:49:31 81° 66° (ENE) 10:54:03 437.305
DOVE 4 18 Dec 10:47:03 10:50:20 19° 295° (WNW) 10:53:45 437.250
AISAT 18 Dec 10:50:00 10:54:28 90° 295° (WNW) 10:58:55 437.250
RS-15 18 Dec 11:00:51 11:10:11 34° 106° (ESE) 11:19:28 29.354- 29.394
DX 1 18 Dec 11:01:26 11:05:01 25° 294° (WNW) 11:08:34 434.975-435.025
CUBEBUG 1 18 Dec 11:05:22 11:09:36 50° 100° (E) 11:13:48 437.445
DANDE 18 Dec 11:10:42 11:13:18 18° 298° (WNW) 11:16:26 436.750
UNISAT 6 18 Dec 11:12:35 11:14:49 14° 271° (W) 11:17:06 437.425
POPSAT HIP 1 18 Dec 11:13:21 11:16:16 18° 268° (W) 11:19:12 437.405
YUBILEINY 18 Dec 11:26:50 11:35:33 82° 264° (W) 11:44:15 435.215
Oscar 11 18 Dec 11:30:26 11:31:41 11° 301° (WNW) 11:32:55 145.826/435.025
CUBEBUG 2 18 Dec 11:31:16 11:34:13 17° 297° (WNW) 11:37:12 437.445
CINEMA 3 18 Dec 11:32:23 11:34:07 12° 300° (WNW) 11:35:52 145.822/145.860
DELFI C3 18 Dec 11:32:35 11:33:34 11° 300° (WNW) 11:34:34 145.870
50 SAT 18 Dec 11:32:58 11:36:43 34° 290° (WNW) 11:40:28 437.505
HUMSAT D 18 Dec 11:35:51 11:39:32 28° 292° (WNW) 11:43:13 437.325/437.525
UKube-1 18 Dec 11:36:38 11:38:33 13° 300° (WNW) 11:40:29 .
Oscar 19 18 Dec 11:37:34 11:41:46 26° 64° (ENE) 11:45:59 437.125/150
ESTCUBE 1 18 Dec 11:38:09 11:42:39 71° 286° (WNW) 11:47:06 437.505/2401.250
VELOX 1 18 Dec 11:45:23 11:49:03 26° 294° (WNW) 11:52:43 145.980
ITAMSAT 1 18 Dec 11:49:45 11:52:21 14° 57° (ENE) 11:54:56 435.822/435.867
ZACube-1 18 Dec 11:53:20 11:55:36 14° 299° (WNW) 11:57:52 437.345
HO-68 18 Dec 11:54:39 11:56:22 11° 316° (NW) 11:58:05 435.675
SWISSCUBE 18 Dec 12:09:14 12:10:17 11° 88° (E) 12:11:20 437.505
SPROUT 18 Dec 12:23:17 12:27:36 84° 103° (ESE) 12:31:55 437.525
O/OREOS (USA 219) 18 Dec 12:27:23 12:28:13 10° 263° (W) 12:29:03 437.305
TISAT 1 18 Dec 12:28:06 12:32:20 81° 285° (WNW) 12:36:34 437.305
AISAT 18 Dec 12:29:18 12:30:23 11° 302° (WNW) 12:31:29 437.250
BEESAT 18 Dec 12:32:53 12:36:08 18° 92° (E) 12:39:22 436.000
CUBEBUG 1 18 Dec 12:42:45 12:45:36 17° 297° (WNW) 12:48:26 437.445
BEESAT 3 18 Dec 12:57:52 13:00:43 19° 112° (ESE) 13:03:37 437.485
AO-7 18 Dec 13:04:02 13:09:24 19° 46° (NE) 13:14:46 29.400- 29.500
Gurwin Techsat 1B 18 Dec 13:07:14 13:12:09 40° 68° (ENE) 13:17:04 435.225
HORYU 2 18 Dec 13:09:39 13:12:16 16° 61° (ENE) 13:14:54 437.375
AUBIESAT-1 18 Dec 13:12:00 13:14:23 14° 94° (E) 13:16:39 437.475
PCSat 18 Dec 13:13:05 13:17:05 21° 107° (ESE) 13:21:05 145.827
